�������l�o���
Date,Time,MP-1(��Sv/h),MP-2(��Sv/h),MP-3(��Sv/h),MP-4(��Sv/h),MP-5(��Sv/h),MP-6(��Sv/h),MP-7(��Sv/h),MP-8(��Sv/h),����,����(m/s),���J
2023/12/01,00:00,0.526,0.801,0.493,1.006,0.723,0.316,0.571,0.530,�k,1.5,��
2023/12/01,00:10,0.527,0.802,0.493,1.006,0.721,0.317,0.571,0.530,�k,1.1,��
2023/12/01,00:20,0.529,0.803,0.496,1.008,0.722,0.316,0.570,0.530,�k,0.8,��
2023/12/01,00:30,0.526,0.802,0.494,1.006,0.720,0.317,0.570,0.532,�k�k��,0.6,��
2023/12/01,00:40,0.527,0.802,0.493,1.008,0.721,0.318,0.570,0.529,�k�k��,0.9,��
2023/12/01,00:50,0.527,0.802,0.495,1.004,0.722,0.317,0.570,0.531,�k�k��,1.2,��
2023/12/01,01:00,0.526,0.800,0.494,1.008,0.720,0.317,0.570,0.530,�k�k��,1.2,��
2023/12/01,01:10,0.527,0.802,0.494,1.006,0.721,0.319,0.569,0.532,-,CALM,��
2023/12/01,01:20,0.525,0.803,0.494,1.007,0.721,0.317,0.570,0.532,��,0.9,��
2023/12/01,01:30,0.528,0.802,0.494,1.006,0.720,0.318,0.569,0.532,-,CALM,��
2023/12/01,01:40,0.528,0.801,0.495,1.006,0.722,0.318,0.571,0.531,�k,1.8,��
2023/12/01,01:50,0.527,0.802,0.494,1.006,0.719,0.317,0.568,0.530,�k,1.1,��
2023/12/01,02:00,0.527,0.803,0.493,1.007,0.719,0.317,0.570,0.529,�k�k��,0.6,��
2023/12/01,02:10,0.526,0.802,0.494,1.005,0.720,0.317,0.571,0.531,���쓌,0.6,��
2023/12/01,02:20,0.528,0.802,0.495,1.005,0.721,0.317,0.571,0.531,-,CALM,��
2023/12/01,02:30,0.525,0.801,0.493,1.006,0.722,0.316,0.570,0.529,�k�k��,0.6,��
2023/12/01,02:40,0.527,0.802,0.493,1.006,0.721,0.317,0.570,0.531,-,CALM,��
2023/12/01,02:50,0.525,0.801,0.494,1.008,0.720,0.315,0.569,0.531,-,CALM,��
2023/12/01,03:00,0.527,0.801,0.493,1.005,0.719,0.317,0.569,0.530,-,CALM,��
2023/12/01,03:10,0.527,0.801,0.493,1.008,0.720,0.318,0.571,0.529,�쐼,1.4,��
2023/12/01,03:20,0.527,0.801,0.493,1.005,0.721,0.317,0.567,0.530,�쐼,2.5,��
2023/12/01,03:30,0.526,0.803,0.495,1.008,0.720,0.316,0.568,0.530,�쐼,1.5,��
2023/12/01,03:40,0.526,0.802,0.493,1.007,0.719,0.316,0.569,0.532,���쐼,0.9,��
2023/12/01,03:50,0.527,0.801,0.493,1.004,0.718,0.317,0.568,0.531,��,2.2,��
2023/12/01,04:00,0.526,0.803,0.495,1.006,0.720,0.317,0.570,0.531,��,2.3,��
2023/12/01,04:10,0.527,0.801,0.494,1.005,0.720,0.316,0.568,0.530,���쐼,2.3,��
2023/12/01,04:20,0.526,0.800,0.494,1.004,0.720,0.317,0.568,0.531,���쐼,2.0,��
2023/12/01,04:30,0.527,0.800,0.493,1.005,0.720,0.316,0.568,0.530,���쐼,2.0,��
2023/12/01,04:40,0.528,0.799,0.493,1.006,0.720,0.317,0.569,0.530,���쐼,1.7,��
2023/12/01,04:50,0.526,0.803,0.493,1.005,0.720,0.316,0.569,0.531,��,3.3,��
2023/12/01,05:00,0.526,0.799,0.495,1.006,0.719,0.318,0.568,0.531,���k��,3.1,��
2023/12/01,05:10,0.525,0.801,0.494,1.003,0.721,0.317,0.568,0.531,��,2.9,��
2023/12/01,05:20,0.525,0.800,0.493,1.008,0.720,0.317,0.569,0.530,��,2.9,��
2023/12/01,05:30,0.527,0.798,0.494,1.005,0.718,0.316,0.570,0.529,���k��,3.5,��
2023/12/01,05:40,0.526,0.800,0.493,1.007,0.721,0.317,0.568,0.531,���k��,3.6,��
2023/12/01,05:50,0.525,0.800,0.493,1.005,0.720,0.317,0.570,0.531,�k��,4.5,��
2023/12/01,06:00,0.528,0.798,0.493,1.007,0.719,0.317,0.567,0.530,�k��,3.5,��
2023/12/01,06:10,0.526,0.801,0.494,1.005,0.721,0.317,0.568,0.532,���k��,3.7,��
2023/12/01,06:20,0.526,0.802,0.492,1.005,0.718,0.315,0.567,0.532,���k��,3.8,��
2023/12/01,06:30,0.528,0.800,0.493,1.006,0.719,0.316,0.568,0.531,���k��,4.3,��
2023/12/01,06:40,0.525,0.801,0.494,1.008,0.718,0.317,0.567,0.529,���k��,4.6,��
2023/12/01,06:50,0.525,0.799,0.493,1.004,0.718,0.315,0.568,0.531,���k��,4.5,��
2023/12/01,07:00,0.526,0.801,0.493,1.005,0.719,0.315,0.570,0.530,�k��,4.9,��
2023/12/01,07:10,0.526,0.801,0.493,1.005,0.720,0.316,0.568,0.530,�k��,4.8,��
2023/12/01,07:20,0.526,0.800,0.493,1.006,0.718,0.316,0.569,0.531,�k��,5.1,��
2023/12/01,07:30,0.526,0.801,0.492,1.004,0.717,0.315,0.570,0.532,���k��,4.8,��
2023/12/01,07:40,0.527,0.799,0.492,1.005,0.719,0.316,0.569,0.531,���k��,4.8,��
2023/12/01,07:50,0.527,0.801,0.494,1.005,0.718,0.316,0.571,0.530,���k��,6.1,��
2023/12/01,08:00,0.527,0.802,0.493,1.008,0.719,0.317,0.569,0.529,���k��,6.0,��
2023/12/01,08:10,0.527,0.802,0.494,1.006,0.720,0.315,0.570,0.532,�k��,6.6,��
2023/12/01,08:20,0.527,0.801,0.494,1.006,0.719,0.318,0.569,0.531,���k��,7.4,��
2023/12/01,08:30,0.523,0.801,0.492,1.006,0.719,0.316,0.572,0.531,��,6.7,��
2023/12/01,08:40,0.524,0.799,0.493,1.005,0.719,0.315,0.570,0.531,��,5.6,��
2023/12/01,08:50,0.522,0.801,0.493,1.007,0.720,0.317,0.570,0.532,���k��,5.4,��
2023/12/01,09:00,0.522,0.801,0.495,1.007,0.720,0.316,0.572,0.532,���k��,5.9,��
2023/12/01,09:10,0.524,0.801,0.496,1.006,0.719,0.317,0.571,0.533,���k��,6.6,��
2023/12/01,09:20,0.523,0.803,0.495,1.007,0.720,0.318,0.570,0.532,���k��,6.6,��
2023/12/01,09:30,0.522,0.800,0.494,1.007,0.719,0.317,0.570,0.530,�k��,7.0,��
2023/12/01,09:40,0.524,0.801,0.493,1.007,0.721,0.317,0.571,0.532,���k��,5.9,��
2023/12/01,09:50,0.524,0.803,0.493,1.007,0.719,0.317,0.570,0.531,���k��,4.7,��
2023/12/01,10:00,0.523,0.801,0.494,1.008,0.717,0.318,0.569,0.534,���k��,7.1,��
2023/12/01,10:10,0.523,0.799,0.495,1.005,0.721,0.317,0.573,0.532,���k��,6.8,��
2023/12/01,10:20,0.524,0.799,0.495,1.006,0.719,0.317,0.569,0.532,���k��,8.1,��
2023/12/01,10:30,0.525,0.799,0.495,1.008,0.719,0.317,0.570,0.532,���k��,7.9,��
2023/12/01,10:40,0.526,0.801,0.496,1.007,0.720,0.317,0.571,0.532,���k��,9.4,��
2023/12/01,10:50,0.527,0.801,0.496,1.005,0.720,0.319,0.570,0.532,���k��,7.7,��
2023/12/01,11:00,0.526,0.800,0.494,1.007,0.721,0.317,0.570,0.533,��,7.2,��
2023/12/01,11:10,0.529,0.802,0.496,1.009,0.722,0.317,0.571,0.532,���k��,4.9,��
2023/12/01,11:20,0.528,0.800,0.496,1.007,0.720,0.316,0.570,0.533,��,4.7,��
2023/12/01,11:30,0.528,0.798,0.496,1.006,0.722,0.318,0.571,0.533,��,6.3,��
2023/12/01,11:40,0.526,0.800,0.496,1.009,0.721,0.318,0.574,0.534,��,5.7,��
2023/12/01,11:50,0.527,0.800,0.494,1.009,0.723,0.317,0.572,0.534,��,6.8,��
2023/12/01,12:00,0.528,0.801,0.496,1.010,0.725,0.317,0.572,0.534,���k��,5.2,��
2023/12/01,12:10,0.528,0.801,0.496,1.009,0.723,0.319,0.572,0.535,��,3.6,��
2023/12/01,12:20,0.528,0.801,0.496,1.010,0.722,0.319,0.572,0.533,���쐼,3.7,��
2023/12/01,12:30,0.528,0.801,0.495,1.009,0.724,0.318,0.573,0.534,���쐼,4.1,��
2023/12/01,12:40,0.527,0.803,0.495,1.009,0.723,0.318,0.573,0.533,���쐼,5.2,��
2023/12/01,12:50,0.528,0.800,0.497,1.007,0.722,0.319,0.573,0.534,��,6.9,��
2023/12/01,13:00,0.527,0.799,0.495,1.009,0.721,0.318,0.573,0.533,��,6.4,��
2023/12/01,13:10,0.526,0.801,0.498,1.007,0.722,0.318,0.573,0.533,��,7.1,��
2023/12/01,13:20,0.527,0.799,0.497,1.009,0.723,0.318,0.574,0.531,��,6.2,��
2023/12/01,13:30,0.527,0.801,0.496,1.007,0.723,0.319,0.573,0.532,��,6.1,��
2023/12/01,13:40,0.526,0.800,0.496,1.010,0.724,0.319,0.573,0.531,���k��,4.9,��
2023/12/01,13:50,0.528,0.801,0.496,1.010,0.724,0.318,0.573,0.531,���k��,5.5,��
2023/12/01,14:00,0.528,0.800,0.496,1.010,0.723,0.318,0.573,0.532,���k��,4.5,��
2023/12/01,14:10,0.529,0.799,0.496,1.009,0.724,0.320,0.573,0.531,���k��,3.5,��
2023/12/01,14:20,0.529,0.800,0.496,1.010,0.723,0.318,0.574,0.532,��,3.8,��
2023/12/01,14:30,0.528,0.799,0.498,1.010,0.724,0.318,0.573,0.531,��,5.3,��
2023/12/01,14:40,0.530,0.800,0.497,1.010,0.722,0.319,0.572,0.532,��,5.0,��
2023/12/01,14:50,0.529,0.801,0.497,1.010,0.724,0.318,0.572,0.532,��,4.9,��
2023/12/01,15:00,0.527,0.802,0.496,1.009,0.723,0.318,0.573,0.535,��,3.9,��
2023/12/01,15:10,0.528,0.803,0.496,1.010,0.724,0.317,0.573,0.534,���k��,5.1,��
2023/12/01,15:20,0.529,0.803,0.496,1.009,0.721,0.317,0.574,0.534,���k��,4.8,��
2023/12/01,15:30,0.529,0.802,0.495,1.009,0.722,0.317,0.573,0.534,���k��,5.6,��
2023/12/01,15:40,0.530,0.804,0.498,1.011,0.721,0.317,0.572,0.534,���k��,5.4,��
2023/12/01,15:50,0.530,0.804,0.497,1.009,0.723,0.319,0.573,0.533,���k��,5.6,��
2023/12/01,16:00,0.530,0.803,0.495,1.008,0.723,0.317,0.573,0.533,���k��,4.5,��
2023/12/01,16:10,0.530,0.805,0.497,1.011,0.722,0.317,0.573,0.533,���k��,4.2,��
2023/12/01,16:20,0.529,0.804,0.495,1.010,0.723,0.318,0.573,0.534,���k��,4.2,��
2023/12/01,16:30,0.529,0.802,0.496,1.010,0.722,0.318,0.572,0.534,���k��,3.5,��
2023/12/01,16:40,0.529,0.802,0.497,1.009,0.722,0.317,0.572,0.534,���k��,4.4,��
2023/12/01,16:50,0.529,0.804,0.497,1.008,0.722,0.318,0.572,0.533,���k��,5.7,��
2023/12/01,17:00,0.530,0.803,0.498,1.008,0.723,0.318,0.572,0.532,�k�k��,5.1,��
2023/12/01,17:10,0.530,0.803,0.496,1.011,0.721,0.317,0.572,0.533,�k,5.2,��
2023/12/01,17:20,0.528,0.802,0.498,1.009,0.724,0.318,0.573,0.533,�k,5.4,��
2023/12/01,17:30,0.530,0.804,0.496,1.009,0.722,0.317,0.572,0.532,�k,6.3,��
2023/12/01,17:40,0.531,0.804,0.496,1.008,0.724,0.319,0.576,0.531,�k,6.0,��
2023/12/01,17:50,0.532,0.806,0.497,1.010,0.723,0.318,0.573,0.533,�k,6.3,��
2023/12/01,18:00,0.530,0.804,0.496,1.009,0.723,0.318,0.573,0.532,�k,6.5,��
2023/12/01,18:10,0.529,0.803,0.496,1.010,0.723,0.319,0.571,0.532,�k,7.2,��
2023/12/01,18:20,0.530,0.803,0.496,1.008,0.723,0.320,0.571,0.531,�k,7.2,��
2023/12/01,18:30,0.529,0.803,0.496,1.008,0.722,0.318,0.574,0.533,�k,7.0,��
2023/12/01,18:40,0.529,0.804,0.496,1.009,0.723,0.318,0.570,0.533,�k,5.9,��
2023/12/01,18:50,0.529,0.804,0.497,1.008,0.724,0.317,0.572,0.533,�k,6.9,��
2023/12/01,19:00,0.530,0.804,0.496,1.010,0.722,0.317,0.570,0.533,�k,6.2,��
2023/12/01,19:10,0.528,0.805,0.496,1.011,0.722,0.317,0.573,0.532,�k,5.4,��
2023/12/01,19:20,0.529,0.804,0.496,1.007,0.723,0.318,0.573,0.531,�k,5.0,��
2023/12/01,19:30,0.531,0.803,0.496,1.007,0.722,0.317,0.572,0.533,�k,4.6,��
2023/12/01,19:40,0.528,0.805,0.496,1.009,0.723,0.318,0.571,0.532,�k,4.9,��
2023/12/01,19:50,0.531,0.803,0.495,1.010,0.721,0.317,0.571,0.533,�k,5.2,��
2023/12/01,20:00,0.527,0.804,0.494,1.009,0.721,0.318,0.571,0.531,�k�k��,5.1,��
2023/12/01,20:10,0.530,0.805,0.496,1.008,0.723,0.318,0.572,0.531,�k,3.3,��
2023/12/01,20:20,0.529,0.804,0.496,1.008,0.723,0.317,0.571,0.530,�k�k��,3.6,��
2023/12/01,20:30,0.530,0.806,0.496,1.010,0.723,0.317,0.570,0.532,�k�k��,4.4,��
2023/12/01,20:40,0.529,0.804,0.497,1.006,0.723,0.317,0.570,0.531,�k�k��,4.6,��
2023/12/01,20:50,0.530,0.805,0.495,1.009,0.724,0.317,0.572,0.532,�k�k��,5.7,��
2023/12/01,21:00,0.529,0.805,0.495,1.010,0.722,0.318,0.571,0.531,�k�k��,6.3,��
2023/12/01,21:10,0.529,0.806,0.495,1.009,0.723,0.318,0.572,0.532,�k�k��,6.1,��
2023/12/01,21:20,0.529,0.802,0.497,1.010,0.723,0.319,0.572,0.532,�k�k��,5.5,��
2023/12/01,21:30,0.527,0.803,0.495,1.010,0.722,0.317,0.572,0.530,�k�k��,5.4,��
2023/12/01,21:40,0.530,0.804,0.496,1.009,0.721,0.317,0.573,0.531,�k�k��,5.9,��
2023/12/01,21:50,0.529,0.804,0.496,1.008,0.723,0.318,0.571,0.532,�k�k��,5.7,��
2023/12/01,22:00,0.529,0.803,0.495,1.008,0.723,0.317,0.570,0.531,�k�k��,5.7,��
2023/12/01,22:10,0.529,0.803,0.495,1.008,0.723,0.317,0.573,0.531,�k�k��,5.5,��
2023/12/01,22:20,0.530,0.804,0.495,1.006,0.722,0.318,0.572,0.532,�k�k��,5.5,��
2023/12/01,22:30,0.530,0.804,0.496,1.010,0.724,0.316,0.571,0.533,�k�k��,5.3,��
2023/12/01,22:40,0.528,0.804,0.496,1.011,0.723,0.316,0.571,0.532,�k�k��,4.6,��
2023/12/01,22:50,0.530,0.804,0.496,1.007,0.722,0.317,0.571,0.532,�k�k��,4.6,��
2023/12/01,23:00,0.530,0.804,0.497,1.007,0.722,0.317,0.571,0.532,�k��,4.2,��
2023/12/01,23:10,0.529,0.803,0.495,1.011,0.723,0.317,0.571,0.532,�k��,4.2,��
2023/12/01,23:20,0.529,0.802,0.494,1.008,0.720,0.318,0.571,0.531,�k��,4.3,��
2023/12/01,23:30,0.529,0.802,0.495,1.011,0.724,0.318,0.571,0.533,�k��,4.8,��
2023/12/01,23:40,0.529,0.803,0.496,1.010,0.722,0.318,0.569,0.531,�k��,5.9,��
2023/12/01,23:50,0.530,0.802,0.495,1.008,0.724,0.317,0.570,0.533,�k��,5.8,��
